Back to catalog

STARLINK-30792

AliveCommunicationsVLEO
NORAD 58220·PAYLOAD·🇺🇸 United States

Launched Nov 3, 2023 from Cape Canaveral Space Force Station

Loading…

Next Passes (next 24 hours)

TLE

FreshSource: CelesTrak SupGP

Epoch: Sep 14, 2026, 14:06 UTC

1 58220C 23170Q   26257.58798611 -.00005688  00000+0 -33385-3 0  2577
2 58220  42.9983 240.8960 0009611  82.1594 358.5000 15.10936130    10

Track STARLINK-30792 in real time with AllMySat

Download on the App Store